Theta_e
312 312 313 313 313 313 312 311 313 313 314 315 315 316 316 316 315 310 303 308 311 321 320 310 306 307 307 307 312 316 304 300 301 301 302 310 309 313 316 314 315 316 316 319 324
315 313 312 312 312 312 312 312 311 312 314 314 315 315 315 315 310 306 315 316 318 320 306 303 303 305 303 305 310 308 303 303 307 308 306 309 310 310 310 311 312 314 317 318 320
314 314 313 312 313 312 312 312 312 312 313 314 314 314 314 314 305 306 322 322 320 321 307 305 305 304 301 304 305 305 301 307 308 310 310 308 308 310 309 308 311 310 312 315 318
314 314 313 312 312 312 312 312 312 312 312 312 313 314 315 312 294 311 326 324 325 313 308 306 302 300 299 299 303 300 304 307 309 310 306 306 307 305 307 309 312 311 313 314 316
314 313 312 312 311 312 311 311 311 311 311 311 312 314 311 305 307 317 326 323 316 310 307 304 300 299 297 298 299 299 299 301 302 301 302 303 302 303 303 308 309 311 312 312 313
313 311 311 312 311 311 311 311 311 310 310 311 313 314 308 299 311 315 319 315 312 309 307 306 302 302 299 297 298 298 298 299 299 300 301 300 302 302 304 306 307 309 309 309 309
311 311 311 311 311 312 311 312 312 311 312 313 314 315 304 303 313 313 315 311 312 310 305 307 305 301 301 297 299 298 294 296 298 299 299 300 297 298 301 304 305 306 307 308 309
312 312 311 311 311 312 313 312 312 311 313 313 316 313 299 309 314 313 312 310 310 310 308 308 306 302 300 299 296 294 293 291 295 297 299 299 292 299 302 302 302 303 305 306 308
311 311 310 310 311 312 313 312 313 313 313 315 312 306 302 316 307 308 310 304 304 305 307 306 304 299 299 295 292 291 287 289 292 297 297 296 292 298 302 301 301 303 303 304 306
310 310 309 310 312 312 312 312 315 315 314 314 312 303 307 305 309 306 306 304 302 303 302 300 299 296 296 294 286 288 289 290 290 295 297 295 295 298 300 301 301 301 302 303 304
309 309 309 311 311 312 310 308 304 301 308 300 301 302 305 310 311 303 305 303 302 300 294 296 294 291 293 294 293 292 290 290 293 296 295 294 294 296 299 299 300 301 302 303 304
309 309 310 311 311 311 306 304 303 305 298 302 303 303 307 309 301 303 306 299 297 293 294 293 290 294 294 293 292 291 290 290 293 296 294 294 293 296 298 299 300 302 302 303 302
308 308 310 311 311 308 306 306 309 305 298 299 302 301 302 306 300 300 303 299 295 292 292 290 292 294 293 292 291 291 290 290 289 293 295 293 290 293 297 299 300 302 302 302 302
308 309 310 310 307 305 305 309 308 306 293 294 297 300 301 302 296 303 303 300 296 292 292 292 294 292 292 290 293 288 295 292 290 289 284 292 283 290 294 295 298 299 301 302 305
308 309 309 309 305 305 308 309 307 306 282 296 296 303 300 297 297 299 303 299 294 293 293 290 291 291 290 291 295 290 295 292 291 289 288 287 285 289 293 292 295 299 300 304 306
308 309 309 306 305 308 308 307 308 292 282 292 297 295 296 297 296 299 299 301 298 294 293 293 295 294 293 295 295 295 292 290 289 288 282 286 286 287 290 293 295 299 301 304 306
308 308 307 306 305 307 308 307 293 286 294 291 291 295 293 293 294 295 293 293 291 287 287 290 291 296 296 292 293 292 289 283 281 281 281 288 285 288 293 296 297 298 300 305 306
306 306 308 309 310 309 306 298 286 289 290 295 293 294 291 293 293 293 291 290 292 291 289 286 284 292 295 292 290 290 289 283 275 278 281 286 282 288 295 298 299 301 304 305 305
305 309 310 311 309 307 300 290 288 290 292 291 292 289 289 292 292 292 291 290 293 294 288 287 286 293 294 294 294 288 286 289 284 284 281 284 288 293 296 296 298 300 302 302 304
305 307 308 308 307 305 297 290 290 293 296 294 288 291 287 289 289 290 290 294 293 295 296 291 285 291 293 294 293 291 293 285 286 277 276 282 284 285 291 293 297 298 300 302 304
305 303 307 306 307 302 293 292 294 298 297 293 291 290 290 289 290 289 289 293 296 295 296 293 290 288 291 290 289 289 288 289 287 286 279 278 283 293 293 295 296 299 301 301 302
301 298 307 306 298 293 292 293 295 295 298 296 295 294 291 291 289 289 289 292 298 297 292 294 291 285 288 293 293 292 290 290 284 282 285 284 284 296 296 297 299 299 300 302 303
297 298 307 305 292 292 293 293 295 294 295 294 293 294 294 291 288 291 292 296 297 297 294 295 289 282 284 288 291 289 290 291 290 288 284 280 284 296 298 298 299 299 301 302 304
296 292 296 296 294 290 289 290 292 297 294 294 293 294 292 290 293 290 290 294 295 296 298 297 291 286 281 285 289 286 289 291 290 284 285 285 287 292 295 297 299 300 302 303 303
294 291 292 288 289 290 291 291 290 290 294 294 292 291 289 287 288 288 291 292 294 296 295 295 287 290 289 290 290 289 289 289 288 289 284 287 288 292 296 297 299 301 301 301 302
292 291 293 290 290 290 290 289 288 289 290 290 289 290 290 288 289 287 289 290 289 293 293 294 287 289 286 289 289 287 289 289 290 290 290 290 290 297 299 300 299 300 300 300 301
294 295 294 288 289 288 287 289 288 289 290 292 291 289 288 290 293 294 294 294 293 291 291 291 289 286 282 287 286 282 287 289 290 292 292 288 293 298 297 298 299 300 300 300 302
Wind_Speed
18 18 16 16 16 16 16 15 16 16 14 14 14 14 14 14 14 5 7 6 4 8 4 4 3 5 4 4 3 4 6 10 8 9 3 3 9 2 3 9 10 4 5 9 13
17 17 16 16 16 16 16 16 15 16 15 14 14 14 14 13 10 8 9 7 10 0 1 1 5 7 5 6 5 7 10 13 7 5 5 1 5 1 5 11 12 6 10 11 12
18 17 17 17 16 16 16 16 15 15 16 15 13 13 13 11 4 2 2 9 7 3 2 0 1 3 6 5 7 4 12 5 7 6 3 3 5 3 7 12 4 13 16 14 11
18 18 18 18 17 17 16 16 15 14 14 14 12 12 12 2 2 4 7 8 7 4 3 4 2 4 5 7 6 7 7 10 10 9 3 6 3 6 12 15 5 11 10 10 10
18 19 19 18 18 17 17 15 14 13 12 12 10 9 3 2 5 2 7 8 5 3 1 4 6 4 6 4 5 7 2 5 4 6 6 6 11 12 11 10 10 9 10 8 9
19 20 20 19 18 17 15 13 12 11 10 10 8 5 2 2 1 2 7 5 2 2 1 3 3 3 4 2 5 3 3 7 3 4 4 8 15 2 5 6 9 5 6 8 10
19 20 21 20 19 16 15 14 12 11 10 8 6 3 2 3 3 2 6 3 3 3 1 3 3 2 3 3 1 2 3 5 7 7 7 2 12 8 1 6 12 6 1 6 8
19 19 21 20 19 18 16 15 12 10 8 6 6 3 6 3 2 5 5 4 5 5 4 3 1 4 2 3 2 2 1 6 1 3 5 8 12 4 6 8 11 8 1 4 6
20 20 21 20 19 19 18 15 9 6 5 4 3 3 1 4 2 1 6 2 2 3 3 4 2 3 2 2 3 2 4 5 2 3 3 5 2 2 4 6 7 9 4 1 3
21 21 21 20 19 18 18 5 9 9 5 4 4 4 1 2 4 4 3 2 1 2 3 1 3 2 2 4 5 3 3 1 4 2 7 8 7 8 11 9 8 7 7 5 3
23 23 22 20 19 14 7 2 0 2 3 3 2 3 4 6 4 2 1 5 2 3 1 2 3 4 3 6 2 2 3 3 2 1 9 9 14 14 14 10 12 9 8 5 5
23 23 22 20 19 12 1 4 2 4 6 4 6 6 5 3 3 2 3 3 2 0 1 3 4 2 4 2 5 5 3 3 4 3 6 12 18 16 18 13 15 13 10 7 3
22 21 21 19 18 2 2 3 5 6 3 4 4 3 2 5 2 4 6 3 2 3 3 3 1 1 1 1 4 3 3 3 4 4 9 9 16 7 3 8 9 6 4 4 4
21 19 18 20 2 3 1 5 5 5 2 1 1 1 4 2 3 4 5 3 2 2 4 4 0 3 1 3 5 5 4 2 4 8 7 4 7 6 7 6 4 3 5 4 3
20 17 13 8 3 1 5 9 1 3 2 1 1 2 0 4 3 1 2 2 6 3 3 2 4 3 4 2 4 2 2 1 5 10 6 5 7 0 4 3 2 5 3 3 3
20 15 8 2 1 3 7 5 2 3 2 1 2 3 4 3 1 3 2 3 2 3 1 7 1 3 1 3 1 3 2 3 1 3 6 0 5 4 6 8 0 4 3 4 6
23 12 3 1 2 5 5 0 2 3 2 1 1 4 1 3 4 3 3 5 6 4 5 1 2 1 2 4 3 2 5 5 3 4 3 1 9 7 6 10 9 8 10 5 7
24 4 3 2 4 4 1 1 4 1 2 1 2 4 2 4 1 4 2 5 2 3 3 5 6 7 4 2 1 1 3 4 5 4 6 3 10 2 1 5 7 8 5 8 9
16 1 1 2 1 0 1 1 2 2 2 2 3 1 1 1 4 4 1 4 3 5 7 6 5 1 1 2 3 4 6 3 6 3 7 6 7 10 10 9 4 6 6 8 14
3 1 1 7 1 1 1 3 3 3 3 2 3 3 2 2 4 3 2 3 4 2 1 3 5 1 2 3 3 5 9 4 3 5 6 6 13 10 9 10 6 7 8 13 18
1 1 1 5 2 3 1 3 4 5 3 5 5 4 6 4 6 3 4 2 5 5 1 5 4 2 2 8 10 6 7 2 1 4 4 6 4 2 5 6 10 10 11 15 20
2 1 3 2 2 1 1 3 4 5 1 3 4 8 6 5 4 6 7 5 5 6 4 2 3 7 10 1 2 5 9 11 6 7 5 5 8 8 10 9 6 13 19 20 16
2 3 2 3 1 2 3 4 4 3 2 2 3 4 1 4 5 7 6 4 7 8 6 6 4 5 4 4 2 6 10 10 6 3 12 11 8 4 4 13 21 21 18 16 12
2 3 3 5 2 1 3 3 3 2 3 3 3 1 1 4 6 4 3 1 1 4 5 7 8 11 12 8 1 6 7 11 13 11 14 18 29 24 25 23 20 18 17 13 14
5 2 1 4 2 3 1 3 4 4 3 3 2 3 3 4 4 8 7 7 4 4 2 5 9 14 18 17 17 21 20 19 21 21 20 19 24 25 21 19 20 18 13 12 14
3 4 1 3 3 3 2 2 3 3 3 4 5 5 5 6 8 16 16 14 15 8 8 4 14 15 17 12 14 20 23 24 25 25 25 25 26 26 17 10 15 15 16 14 13
1 1 2 0 1 2 2 1 1 4 7 10 6 11 13 13 8 11 13 14 12 7 5 5 5 5 13 6 5 12 26 24 22 18 15 16 18 9 13 13 16 16 15 18 18
Wind_Direction
346 340 336 333 330 331 330 326 325 322 320 319 320 324 325 322 316 302 245 229 169 292 270 294 241 169 153 170 208 131 222 228 211 196 223 245 190 215 330 299 327 312 15 324 339
342 341 335 331 327 326 324 323 320 316 316 317 322 326 328 327 307 264 247 213 229 339 183 300 152 165 171 163 191 196 226 221 183 184 235 177 261 41 299 296 306 284 322 329 338
339 337 337 331 325 322 319 317 314 312 312 316 321 326 326 322 278 315 161 195 193 170 94 301 134 194 194 161 168 182 236 221 202 188 215 229 222 234 281 280 290 324 326 339 346
336 336 334 331 326 322 319 314 311 307 306 312 319 325 324 284 110 12 123 157 138 142 184 117 135 191 190 181 144 231 218 225 237 256 255 249 324 256 263 269 305 310 311 320 349
335 336 332 329 326 321 318 314 309 303 302 302 311 324 326 265 267 333 143 140 134 147 94 128 162 181 195 173 167 198 230 256 253 283 274 285 261 267 278 287 294 306 309 344 10
337 336 332 327 325 322 318 315 309 303 295 289 302 317 286 259 94 275 146 145 158 164 136 181 184 205 125 141 210 143 210 273 297 252 244 260 266 256 266 307 289 325 18 48 35
335 332 329 327 324 320 316 311 306 297 287 281 278 268 258 233 97 37 191 213 189 206 232 191 206 248 137 150 48 145 260 265 240 240 251 245 272 246 317 267 273 236 210 34 21
332 329 329 328 324 319 314 310 297 281 270 264 258 210 256 230 228 270 189 253 220 235 255 262 117 91 359 114 49 228 232 257 79 217 240 201 248 153 13 11 321 340 55 14 5
334 331 329 328 325 323 322 315 287 231 219 214 210 249 250 306 269 57 181 231 163 129 200 74 73 55 141 170 188 157 213 209 265 5 6 222 244 176 15 333 310 311 319 114 333
336 332 329 326 326 328 327 345 94 116 148 195 245 240 269 331 304 314 171 184 336 103 118 60 65 156 130 210 219 170 183 174 274 38 331 299 274 298 303 293 285 282 291 299 286
337 334 329 325 325 331 330 177 272 155 209 254 299 285 300 313 263 191 185 146 114 76 148 53 220 215 226 240 207 173 192 211 246 132 325 301 293 290 278 261 267 259 262 257 253
338 334 328 326 323 327 215 71 94 308 312 250 253 270 265 258 307 283 200 192 139 217 172 184 239 206 286 160 182 184 190 188 265 273 312 295 292 283 271 253 238 237 221 232 276
339 335 330 327 318 318 26 91 324 169 265 294 211 232 246 180 240 257 178 157 199 194 185 217 184 214 77 133 182 197 216 191 265 305 266 295 275 207 239 242 218 212 239 235 253
339 336 334 328 274 333 358 338 328 197 309 49 203 162 163 221 258 217 195 165 173 252 193 256 34 160 293 220 203 221 186 230 274 315 302 331 285 240 277 214 240 215 275 255 323
336 336 339 354 323 304 346 334 359 216 177 111 104 68 54 231 333 140 139 148 232 172 222 62 181 220 256 229 190 120 188 282 289 287 296 247 252 323 201 150 91 309 250 232 323
335 334 336 150 242 299 329 318 235 236 203 141 34 3 338 358 271 316 163 90 87 191 236 271 250 250 185 95 83 121 216 300 172 244 242 157 260 174 194 181 287 306 286 300 335
333 327 180 162 358 332 317 247 257 236 19 55 9 355 296 316 329 357 218 177 211 201 231 264 212 249 213 172 125 128 336 307 254 222 302 160 289 253 234 240 280 294 305 335 322
329 306 171 228 308 325 20 153 246 122 267 7 4 318 258 352 263 342 174 182 148 159 196 239 221 188 168 219 266 207 278 258 285 275 316 256 254 176 333 290 286 280 285 310 329
323 324 116 21 309 47 120 237 292 216 305 289 315 285 276 326 327 331 315 213 187 190 213 199 236 213 195 157 207 135 211 22 261 253 274 247 271 268 280 271 313 275 296 334 336
345 337 63 339 161 101 108 261 250 237 348 228 268 229 277 276 295 308 266 189 187 202 259 186 259 215 127 157 84 245 141 182 186 246 254 255 275 257 283 302 333 314 300 326 332
6 169 63 353 174 61 238 264 285 274 321 219 230 248 240 274 240 244 265 267 206 158 205 168 244 202 216 214 220 168 192 163 273 238 261 294 254 244 274 307 313 306 307 311 320
353 230 11 273 50 58 180 313 317 281 336 276 242 244 240 214 240 237 239 235 185 169 215 181 236 250 250 184 296 242 243 215 223 188 229 283 275 283 258 274 276 303 304 309 309
26 303 340 317 56 355 322 274 259 276 304 308 271 226 207 225 249 231 233 276 199 180 199 176 212 273 222 153 176 215 195 210 225 251 241 260 256 155 220 280 304 302 301 306 298
352 346 4 48 27 48 336 271 278 316 250 324 285 307 263 242 233 272 243 277 24 244 230 181 227 246 256 295 153 226 211 217 227 254 261 247 272 282 290 299 303 297 298 291 295
13 41 34 320 37 337 269 303 287 291 344 308 191 68 14 276 276 263 279 281 271 250 228 208 256 253 260 262 265 269 268 260 248 252 250 264 269 276 286 302 305 294 283 283 289
17 346 1 288 278 273 198 230 285 307 295 284 264 343 327 262 266 289 289 277 264 262 261 197 258 261 264 259 259 266 265 256 255 258 257 258 267 272 284 296 312 290 279 280 295
59 114 285 283 257 262 226 267 290 337 276 252 296 317 293 291 286 277 268 263 248 244 232 225 240 262 267 280 302 270 254 254 251 250 253 247 249 283 299 317 321 314 283 283 296